TimeCDT,TemperatureF,Dew PointF,Humidity,Sea Level PressureIn,VisibilityMPH,Wind Direction,Wind SpeedMPH,Gust SpeedMPH,PrecipitationIn,Events,Conditions,WindDirDegrees,DateUTC
12:17 AM,51.8,35.6,54,30.05,10.0,ESE,4.6,-,N/A,,Overcast,110,2013-05-18 05:17:00
12:36 AM,51.8,35.6,54,30.04,10.0,East,4.6,-,N/A,,Overcast,100,2013-05-18 05:36:00
12:56 AM,51.8,35.6,54,30.03,10.0,East,3.5,-,N/A,,Overcast,90,2013-05-18 05:56:00
1:16 AM,51.8,35.6,54,30.02,10.0,East,4.6,-,N/A,,Overcast,100,2013-05-18 06:16:00
1:36 AM,51.8,35.6,54,30.02,10.0,East,4.6,-,N/A,,Overcast,100,2013-05-18 06:36:00
1:57 AM,51.8,35.6,54,30.01,10.0,East,4.6,-,N/A,,Overcast,100,2013-05-18 06:57:00
2:16 AM,51.8,35.6,54,30.01,10.0,East,4.6,-,N/A,,Overcast,90,2013-05-18 07:16:00
2:36 AM,51.8,35.6,54,30.00,10.0,East,3.5,-,N/A,,Overcast,80,2013-05-18 07:36:00
2:57 AM,51.8,35.6,54,30.00,10.0,Calm,Calm,-,N/A,,Overcast,0,2013-05-18 07:57:00
3:16 AM,51.8,35.6,54,29.99,10.0,East,3.5,-,N/A,,Overcast,100,2013-05-18 08:16:00
3:37 AM,51.8,37.4,58,30.00,10.0,East,3.5,-,N/A,,Overcast,100,2013-05-18 08:37:00
3:57 AM,51.8,37.4,58,29.99,10.0,East,3.5,-,N/A,,Overcast,100,2013-05-18 08:57:00
4:16 AM,50.0,37.4,62,29.98,10.0,East,3.5,-,N/A,,Mostly Cloudy,80,2013-05-18 09:16:00
4:37 AM,50.0,37.4,62,29.98,10.0,Calm,Calm,-,N/A,,Overcast,0,2013-05-18 09:37:00
4:57 AM,50.0,39.2,66,29.98,7.0,SE,3.5,-,N/A,Rain,Rain,130,2013-05-18 09:57:00
5:16 AM,48.2,44.6,87,29.98,7.0,Calm,Calm,-,N/A,Rain,Light Rain,0,2013-05-18 10:16:00
5:37 AM,46.4,44.6,93,29.98,10.0,Calm,Calm,-,N/A,,Overcast,0,2013-05-18 10:37:00
5:57 AM,46.4,46.4,100,29.99,10.0,Calm,Calm,-,N/A,,Overcast,0,2013-05-18 10:57:00
6:16 AM,48.2,46.4,93,29.99,10.0,ESE,3.5,-,N/A,,Overcast,110,2013-05-18 11:16:00
6:37 AM,48.2,46.4,93,29.99,10.0,Calm,Calm,-,N/A,Rain,Rain,0,2013-05-18 11:37:00
6:56 AM,48.2,46.4,93,29.99,10.0,ESE,3.5,-,N/A,Rain,Light Rain,110,2013-05-18 11:56:00
7:16 AM,48.2,46.4,93,29.99,10.0,ESE,5.8,-,N/A,,Overcast,120,2013-05-18 12:16:00
7:37 AM,48.2,48.2,100,29.99,10.0,ESE,3.5,-,N/A,,Overcast,120,2013-05-18 12:37:00
7:56 AM,50.0,48.2,94,29.99,7.0,ESE,3.5,-,N/A,Rain,Rain,110,2013-05-18 12:56:00
8:16 AM,50.0,48.2,94,29.98,4.0,ESE,3.5,-,N/A,Rain,Rain,110,2013-05-18 13:16:00
8:37 AM,50.0,48.2,94,29.97,10.0,Calm,Calm,-,N/A,,Drizzle,0,2013-05-18 13:37:00
8:56 AM,51.8,48.2,88,29.96,10.0,Calm,Calm,-,N/A,,Light Drizzle,0,2013-05-18 13:56:00
9:16 AM,51.8,50.0,94,29.96,10.0,East,4.6,-,N/A,,Overcast,100,2013-05-18 14:16:00
9:37 AM,53.6,51.8,94,29.95,10.0,ESE,3.5,-,N/A,,Overcast,110,2013-05-18 14:37:00
9:56 AM,53.6,51.8,94,29.95,10.0,ESE,4.6,-,N/A,,Overcast,110,2013-05-18 14:56:00
10:17 AM,53.6,51.8,94,29.95,7.0,SE,4.6,-,N/A,,Overcast,130,2013-05-18 15:17:00
10:37 AM,53.6,51.8,94,29.95,7.0,SE,9.2,-,N/A,,Light Drizzle,140,2013-05-18 15:37:00
10:56 AM,53.6,51.8,94,29.95,7.0,SE,4.6,-,N/A,Rain,Rain,130,2013-05-18 15:56:00
11:16 AM,55.4,53.6,94,29.95,10.0,SSE,6.9,-,N/A,,Light Drizzle,150,2013-05-18 16:16:00
11:36 AM,55.4,53.6,94,29.95,10.0,SSE,6.9,-,N/A,,Light Drizzle,150,2013-05-18 16:36:00
11:57 AM,55.4,51.8,88,29.95,10.0,SSE,9.2,-,N/A,,Overcast,150,2013-05-18 16:57:00
12:16 PM,55.4,53.6,94,29.95,10.0,SE,8.1,-,N/A,,Overcast,140,2013-05-18 17:16:00
12:36 PM,55.4,53.6,94,29.94,10.0,SE,5.8,-,N/A,,Light Drizzle,130,2013-05-18 17:36:00
12:57 PM,55.4,53.6,94,29.93,10.0,SE,4.6,-,N/A,,Light Drizzle,130,2013-05-18 17:57:00
1:16 PM,55.4,53.6,94,29.93,10.0,SE,3.5,-,N/A,Rain,Rain,130,2013-05-18 18:16:00
1:36 PM,55.4,53.6,94,29.93,7.0,ESE,3.5,-,N/A,Rain,Light Rain,120,2013-05-18 18:36:00
2:16 PM,55.4,53.6,94,29.92,2.5,Calm,Calm,-,N/A,Rain,Heavy Rain,0,2013-05-18 19:16:00
2:36 PM,55.4,53.6,94,29.91,5.0,ESE,3.5,-,0.01,Rain,Light Rain,110,2013-05-18 19:36:00
2:57 PM,55.4,53.6,94,29.90,5.0,ESE,4.6,-,N/A,,Overcast,110,2013-05-18 19:57:00
3:16 PM,55.4,53.6,94,29.90,5.0,East,3.5,-,N/A,,Overcast,100,2013-05-18 20:16:00
3:36 PM,55.4,53.6,94,29.90,10.0,SE,5.8,-,N/A,,Overcast,140,2013-05-18 20:36:00
3:57 PM,57.2,53.6,88,29.90,10.0,SE,4.6,-,N/A,,Overcast,130,2013-05-18 20:57:00
4:16 PM,57.2,55.4,94,29.90,10.0,SE,3.5,-,N/A,,Overcast,130,2013-05-18 21:16:00
4:36 PM,57.2,55.4,94,29.90,7.0,SE,4.6,-,N/A,,Overcast,140,2013-05-18 21:36:00
5:17 PM,57.2,55.4,94,29.91,4.0,SSE,4.6,-,N/A,,Overcast,160,2013-05-18 22:17:00
5:36 PM,57.2,55.4,94,29.91,3.0,SE,4.6,-,N/A,,Overcast,140,2013-05-18 22:36:00
5:57 PM,57.2,55.4,94,29.90,4.0,SSE,3.5,-,N/A,,Overcast,150,2013-05-18 22:57:00
6:16 PM,57.2,55.4,94,29.90,4.0,SSE,4.6,-,N/A,,Overcast,150,2013-05-18 23:16:00
6:36 PM,57.2,55.4,94,29.90,5.0,SSE,4.6,-,N/A,,Overcast,160,2013-05-18 23:36:00
6:57 PM,57.2,55.4,94,29.90,7.0,South,3.5,-,N/A,,Overcast,170,2013-05-18 23:57:00
7:16 PM,57.2,55.4,94,29.90,7.0,SSE,5.8,-,N/A,,Overcast,160,2013-05-19 00:16:00
7:36 PM,57.2,55.4,94,29.89,7.0,SSE,4.6,-,N/A,,Overcast,150,2013-05-19 00:36:00
7:57 PM,57.2,55.4,94,29.89,5.0,SSE,5.8,-,N/A,,Overcast,160,2013-05-19 00:57:00
8:16 PM,57.2,55.4,94,29.89,4.0,SSE,4.6,-,N/A,,Overcast,160,2013-05-19 01:16:00
8:36 PM,57.2,55.4,94,29.89,4.0,SSE,4.6,-,N/A,,Overcast,160,2013-05-19 01:36:00
8:57 PM,57.2,55.4,94,29.89,5.0,SSE,3.5,-,N/A,,Overcast,160,2013-05-19 01:57:00
9:16 PM,57.2,55.4,94,29.88,5.0,SE,4.6,-,N/A,,Overcast,140,2013-05-19 02:16:00
9:37 PM,55.4,55.4,100,29.89,5.0,Calm,Calm,-,N/A,,Mostly Cloudy,0,2013-05-19 02:37:00
9:57 PM,55.4,53.6,94,29.89,3.0,Calm,Calm,-,N/A,,Mostly Cloudy,0,2013-05-19 02:57:00
10:16 PM,55.4,53.6,94,29.89,3.0,Calm,Calm,-,N/A,,Mostly Cloudy,0,2013-05-19 03:16:00
10:37 PM,55.4,53.6,94,29.89,2.5,Calm,Calm,-,N/A,,Mostly Cloudy,0,2013-05-19 03:37:00
10:57 PM,55.4,53.6,94,29.88,2.5,Calm,Calm,-,N/A,,Overcast,0,2013-05-19 03:57:00
11:16 PM,53.6,53.6,100,29.87,2.5,Calm,Calm,-,N/A,,Overcast,0,2013-05-19 04:16:00
11:37 PM,53.6,53.6,100,29.87,2.5,Calm,Calm,-,N/A,,Mostly Cloudy,0,2013-05-19 04:37:00
11:57 PM,53.6,53.6,100,29.87,3.0,Calm,Calm,-,N/A,,Scattered Clouds,0,2013-05-19 04:57:00